Regional Weather Roundup
Issued by NWS

Home | Current Version | Previous Version | Graphics & Text | Print | Product List | Glossary On
Versions: 1 2 3 4 5 6 7 8 9 10 11 12 13 14 15 16 17 18 19 20 21 22 23 24 25 26 27 28 29 30 31 32 33 34 35 36 37 38 39 40 41 42 43 44 45 46 47 48 49 50
000
ASUS43 KIND 221009
RWRIN

WEATHER ROUNDUP FOR INDIANA
NATIONAL WEATHER SERVICE INDIANAPOLIS IN
600 AM EDT MON SEP 22 2014

NOTE: "FAIR" INDICATES FEW OR NO CLOUDS BELOW 12,000 FEET WITH NO
SIGNIFICANT WEATHER AND/OR OBSTRUCTIONS TO VISIBILITY.

* - STATION DOES NOT REPORT WEATHER SUCH AS PRECIPITATION OR FOG.

+ - STATION NOT QUALITY CONTROLLED BY THE NATIONAL WEATHER SERVICE.
    USE DATA WITH CAUTION...ESPECIALLY DEWPOINT AND RELATIVE
    HUMIDITY OBSERVATIONS.

INZ001>003-010>013-019-020-221100-
NORTHWEST INDIANA

CITY           SKY/WX    TMP DP  RH WIND       PRES   REMARKS
GARY /AIRPORT/ MOCLDY    54  43  66 N9        30.18S
KNOX *+        PTCLDY    46  42  86 CALM      30.17R
LA PORTE +     MOCLDY    47  44  87 E3        30.18R
MICHIGAN CITY+ MOCLDY    52  37  58 N7        30.18R
MONTICELLO +   PTCLDY    43  43 100 CALM      30.17R
RENSSELAER +   PTCLDY    45  45 100 NW3       30.19R
VALPARAISO     PTCLDY    50  42  74 N3        30.18R

$$

LMZ046-743>745-221100-
SOUTHERN LAKE MICHIGAN

STATION/POSITION TIME  TEMP WIND        PRES
                       AIR  DIR/SP/G
                 (UTC) (F)  (DEG/KT/KT) (MB)
MICHIGAN CITY    1000   54  360/ 15/ 22   N/A

$$

INZ004-005-014>016-021>024-221100-
NORTH CENTRAL INDIANA

CITY           SKY/WX    TMP DP  RH WIND       PRES   REMARKS
GOSHEN         CLOUDY   N/A N/A N/A N9        30.17R
LOGANSPORT +   CLOUDY    45  41  87 N3        30.18R
PERU/GRISSOM   CLOUDY    46  46 100 VRB5      30.17R
ROCHESTER +    CLOUDY    46  43  87 CALM      30.18R
SOUTH BEND     PTCLDY    45  38  76 N5        30.18R
WARSAW +       CLOUDY    45  37  76 N8G16     30.17R

$$

INZ006>009-017-018-025>027-221100-
NORTHEAST INDIANA

CITY           SKY/WX    TMP DP  RH WIND       PRES   REMARKS
ANGOLA *+      CLOUDY    46  28  49 N6        30.15R
FORT WAYNE     MOCLDY    45  40  82 N7        30.17R
HUNTINGTON +   MOCLDY    43  38  83 N5        30.17R

$$

INZ028-029-035-036-043>045-051>053-221100-
WEST CENTRAL INDIANA

CITY           SKY/WX    TMP DP  RH WIND       PRES   REMARKS
GREENCASTLE +  PTCLDY    50  46  87 CALM      30.18R
LAFAYETTE      CLEAR     46  44  93 NW3       30.18R
TERRE HAUTE    CLEAR     48  46  93 CALM      30.18R

$$

INZ030>032-037>040-046>048-054>057-064-065-221100-
CENTRAL INDIANA

CITY           SKY/WX    TMP DP  RH WIND       PRES   REMARKS
CP ATTERBURY + CLEAR     46  45  93 CALM      30.16R
FRANKFORT +    CLEAR    N/A N/A N/A NW5       30.18R
GREENWOOD *+   CLEAR     50  46  87 N3        30.16
INDIANAPOLIS   CLEAR     49  45  86 N6        30.15R
-EAGLE CREEK   PTCLDY    50  46  86 N7        30.16R
KOKOMO *+      MOCLDY    45  39  81 N8        30.18R
MARION +       CLOUDY    44  40  86 N5        30.17R
MT COMFORT *+  CLEAR     45  45 100 N5        30.16R
SHELBYVILLE    CLEAR     47  43  86 N6        30.15R
ZIONSVILLE +   CLEAR     45  42  90 N5        30.17R

$$

INZ033-034-041-042-049-050-058-059-221100-
EAST CENTRAL INDIANA

CITY           SKY/WX    TMP DP  RH WIND       PRES   REMARKS
MUNCIE         CLEAR     43  39  86 N8        30.15R

$$

INZ060-061-067>069-081>083-085>088-221100-
SOUTHWEST INDIANA

CITY           SKY/WX    TMP DP  RH WIND       PRES   REMARKS
EVANSVILLE     CLEAR     54  50  86 N6        30.17R
WASHINGTON +   CLEAR     47  47 100 NW5       30.17R

$$

INZ062-063-066-070>080-084-089>092-221100-
SOUTH CENTRAL AND SOUTHEAST INDIANA

CITY           SKY/WX    TMP DP  RH WIND       PRES   REMARKS
BLOOMINGTON    CLEAR     49  46  90 CALM      30.16R

$$




USA.gov is the U.S. government's official web portal to all federal, state and local government web resources and services.